This demonstration page uses our WeatherBlox Daily Observations layout. Learn more.

Left ArrowRight Arrow

40.97296, -117.73568

Hourly Observations for March 31, 2016

Temp ( °F °C ) Dew Point ( °F °C ) Humidity (%) Winds ( mph kmh ) Pressure ( in mb ) Visibility ( mi km ) Precip ( " mm )
12:56 am 00:56 Clear 37 2.8 32 0 82 82 S 8 13 30.06 1018 10 16 0.00 0.00
1:56 am 01:56 Clear 32 0 29 -1.7 88 88 SE 7 11 30.07 1018 10 16 0.00 0.00
2:56 am 02:56 Clear 34 1.1 31 -0.6 89 89 S 10 17 30.06 1018 10 16 0.00 0.00
3:56 am 03:56 Clear 33 0.6 30 -1.1 89 89 SSE 6 9 30.06 1018 10 16 0.00 0.00
4:56 am 04:56 Clear 33 0.6 30 -1.1 89 89 SSE 7 11 30.06 1018 10 16 0.00 0.00
5:56 am 05:56 Clear 29 -1.7 27 -2.8 92 92 ESE 5 7 30.06 1018 10 16 0.00 0.00
6:56 am 06:56 Sunny 29 -1.7 27 -2.8 92 92 ESE 3 6 30.08 1019 10 16 0.00 0.00
7:56 am 07:56 Sunny 32 0 29 -1.7 88 88 Calm 30.10 1019 10 16 0.00 0.00
8:56 am 08:56 Sunny 43 6.1 34 1.1 71 71 S 9 15 30.08 1019 10 16 0.00 0.00
9:56 am 09:56 Sunny 48 8.9 34 1.1 58 58 S 6 9 30.07 1018 10 16 0.00 0.00
10:56 am 10:56 Sunny 52 11.1 34 1.1 50 50 VRB 3 6 30.05 1018 10 16 0.00 0.00
11:56 am 11:56 Sunny 54 12.2 34 1.1 47 47 W 6 9 30.05 1018 10 16 0.00 0.00
12:56 pm 12:56 Sunny 58 14.4 29 -1.7 33 33 undefined N/A 30.04 1017 10 16 0.00 0.00
1:56 pm 13:56 Sunny 59 15 26 -3.3 28 28 VRB 5 7 30.03 1017 10 16 0.00 0.00
2:56 pm 14:56 Sunny 61 16.1 26 -3.3 26 26 N 8 13 30.01 1016 10 16 0.00 0.00
3:56 pm 15:56 Sunny 62 16.7 27 -2.8 26 26 N 14 22 30.01 1016 10 16 0.00 0.00
5:56 pm 17:56 Sunny 60 15.6 28 -2.2 30 30 NNW 10 17 30.01 1016 10 16 0.00 0.00
6:56 pm 18:56 Sunny 57 13.9 30 -1.1 36 36 NW 3 6 30.02 1017 10 16 0.00 0.00
7:56 pm 19:56 Clear 48 8.9 31 -0.6 52 52 SSW 3 6 30.05 1018 10 16 0.00 0.00
8:56 pm 20:56 Clear 40 4.4 33 0.6 77 77 Calm 30.07 1018 10 16 0.00 0.00
9:56 pm 21:56 Clear 39 3.9 32 0 76 76 SSE 7 11 30.08 1019 10 16 0.00 0.00
10:56 pm 22:56 Clear 37 2.8 31 -0.6 79 79 SE 7 11 30.09 1019 10 16 0.00 0.00
11:56 pm 23:56 Clear 35 1.7 30 -1.1 82 82 Calm 30.11 1020 10 16 0.00 0.00

Powered by AerisWeather